Notices

What's New in latest Release from April 7th, 2021:

- Updated Glossary, including Speed of Maximum Gust, and Total Hourly Precipitation

- Updated national and regional climate services offices contacts and prices information

- Addition of station inventory lists for 1981-2010, 1971-2000, and 1961-1990 Normals.

If you haven't already, please take our survey and provide feedback about our website: https://eccc.sondage-survey.ca/f/LanguageSelection.aspx?s=442ca660-fcf1-47c0-95a9-59707d6fd709

Hourly Data Report for March 23, 2021

NANAIMO A
BRITISH COLUMBIA
Current Station Operator: NAVCAN

49°03'16.000" N
123°52'12.000" W
28.00 m
1025365
YCD

Download Data

Hourly Data (March 2021)
Hourly Data Report for March 23, 2021
TIME
LST
Temp Definition
°C
Dew Point Definition
°C
Rel Hum Definition
%
Precip. Amount Definition
mm

Wind Dir Definition
10's deg

Wind Spd Definition
km/h
Visibility Definition
km
Stn Press Definition
kPa
Hmdx Definition


Wind Chill Definition


Weather Definition


00:00 3.6 0.3 79 LegendMM 24 13 LegendMM 102.39     LegendNANA
01:00 2.5 0.5 87 LegendMM 28 9 LegendMM 102.47     LegendNANA
02:00 2.3 -0.6 81 LegendMM 26 10 LegendMM 102.57     LegendNANA
03:00 1.8 -0.9 82 LegendMM 25 10 LegendMM 102.62     LegendNANA
04:00 0.9 -1.1 87 LegendMM 26 7 LegendMM 102.68     LegendNANA
05:00 -0.2 -1.1 94 LegendMM 18 4 LegendMM 102.75   -1 LegendNANA
06:00 -1.1 -1.6 96 LegendMM 19 3 LegendMM 102.79   -2 LegendNANA
07:00 -0.5 -1.1 95 LegendMM 19 4 LegendMM 102.88   -2 LegendNANA
08:00 3.0 1.0 87 LegendMM 18 5 LegendMM 102.88     LegendNANA
09:00 7.3 1.7 67 LegendMM 1 3 LegendMM 102.91     LegendNANA
10:00 8.0 1.9 65 LegendMM 5 4 LegendMM 102.93     LegendNANA
11:00 8.5 2.1 64 LegendMM 14 4 LegendMM 102.94     LegendNANA
12:00 9.3 2.7 63 LegendMM 6 14 LegendMM 102.89     LegendNANA
13:00 9.6 2.3 60 LegendMM 8 9 LegendMM 102.89     LegendNANA
14:00 10.4 3.3 61 LegendMM 10 12 LegendMM 102.82     LegendNANA
15:00 9.7 3.1 64 LegendMM 10 15 LegendMM 102.77     LegendNANA
16:00 9.4 3.4 66 LegendMM 8 9 LegendMM 102.75     LegendNANA
17:00 8.8 3.6 70 LegendMM 9 5 LegendMM 102.70     LegendNANA
18:00 7.6 4.5 81 LegendMM 11 7 LegendMM 102.65     LegendNANA
19:00 6.7 5.9 95 LegendMM 9 3 LegendMM 102.55     LegendNANA
20:00 6.7 6.5 99 LegendMM 25 2 LegendMM 102.48     LegendNANA
21:00 5.9 5.9 100 LegendMM 26 6 LegendMM 102.34     LegendNANA
22:00 5.8 5.8 100 LegendMM 32 3 LegendMM 102.24     LegendNANA
23:00 5.7 5.7 100 LegendMM 31 1 LegendMM 102.14     LegendNANA

Notes on Data Quality.

Legend

  • E = Estimated
  • M = Missing
  • NA = Not Available*
  • [empty] = Indicates an unobserved value
Date modified: